Location: Tel Aviv
(32.0670°N, 34.7670°E)
Time: 02:43:33
(UTC+03:00)

Tiros 1 - Pass Details

Date: 25 January 2022
Orbit: 629 x 663 km, 48.4° (Epoch: 26 May)

Event Time Altitude Azimuth Distance (km) Brightness Sun altitude
Rises 21:43:35 0° 241° (WSW) 2,980 - -58.0°
Reaches altitude 10° 21:45:58 10° 245° (WSW) 2,072 - -58.5°
Maximum altitude 21:50:40 55° 324° (NW) 794 - -59.4°
Drops below altitude 10° 21:55:23 10° 42° (NE) 2,077 - -60.4°
Sets 21:57:47 0° 47° (NE) 2,989 - -60.9°
